Huntsville Madison, AL

6:55 PM CST on December 12, 2017 (GMT -0600)
Huntsville Madison

Weather History for KMDQ - March, 2012

Change the Weather History Date:

Thursday, March 29, 2012

  Actual Average (KHSV) Record (KHSV)
Temperature  
Mean Temperature 66 °F -  
Max Temperature 78 °F 68 °F 88 °F (2007)
Min Temperature 53 °F 47 °F 26 °F (1955)
Growing Degree Days 16 (Base 50)    
Moisture  
Dew Point 57 °F    
Average Humidity 73    
Maximum Humidity 100    
Minimum Humidity 44    
Precipitation  
Precipitation 0.00 in - - ()
Sea Level Pressure  
Sea Level Pressure 30.00 in    
Wind  
Wind Speed 4 mph (SW)    
Max Wind Speed 10 mph    
Max Gust Speed -    
Visibility 9 miles    
Events      
Averages and records for this station are not official NWS values.
T = Trace of Precipitation, MM = Missing Value Source: NWS Daily Summary

Daily Weather History Graph

Daily Weather History Graph

Search for Another Location

Airport or City:

Trip Planner

Search our weather history database for the weather conditions in past years. The results will help you decide how hot, cold, wet, or windy it might be!

Date:

Astronomy

Mar. 29, 2012 Rise Set
Actual Time 6:36 AM CDT 7:05 PM CDT
Civil Twilight 6:11 AM CDT 7:30 PM CDT
Nautical Twilight 5:41 AM CDT 8:00 PM CDT
Astronomical Twilight 5:11 AM CDT 8:31 PM CDT
Moon 10:56 AM CDT (3/29) 12:44 AM CDT (3/29)
Length of Visible Light 13h 19m
Length of Day
12h 28m
Waxing Crescent, 39% of the Moon is Illuminated
Mar 29
Waxing Crescent
Mar 30
First Quarter
Apr 6
Full
Apr 13
Last Quarter
Apr 21
New

Hourly Weather History & Observations

Time (CDT) Temp. Dew Point Humidity Pressure Visibility Wind Dir Wind Speed Gust Speed Precip Events Conditions
12:15 AM 64.4 °F 55.4 °F 73% 30.04 in 10.0 mi South 8.1 mph - N/A   Clear
12:35 AM 64.4 °F 55.4 °F 73% 30.03 in 10.0 mi South 10.4 mph - N/A   Clear
12:55 AM 64.4 °F 55.4 °F 73% 30.03 in 10.0 mi SSW 9.2 mph - N/A   Clear
1:15 AM 62.6 °F 55.4 °F 77% 30.03 in 10.0 mi SSW 6.9 mph - N/A   Clear
1:35 AM 62.6 °F 55.4 °F 77% 30.03 in 10.0 mi SSW 5.8 mph - N/A   Clear
1:55 AM 59.0 °F 55.4 °F 88% 30.03 in 10.0 mi Calm Calm - N/A   Clear
2:15 AM 57.2 °F 53.6 °F 88% 30.03 in 10.0 mi Calm Calm - N/A   Clear
2:55 AM 55.4 °F 55.4 °F 100% 30.02 in 7.0 mi Calm Calm - N/A   Scattered Clouds
3:15 AM 55.4 °F 55.4 °F 100% 30.02 in 5.0 mi Calm Calm - N/A   Clear
3:35 AM 55.4 °F 55.4 °F 100% 30.02 in 7.0 mi Calm Calm - N/A   Scattered Clouds
3:55 AM 55.4 °F 55.4 °F 100% 30.02 in 7.0 mi Calm Calm - N/A   Overcast
4:15 AM 55.4 °F 55.4 °F 100% 30.02 in 7.0 mi Calm Calm - N/A   Mostly Cloudy
4:35 AM 57.2 °F 55.4 °F 94% 30.02 in 10.0 mi Calm Calm - N/A   Scattered Clouds
4:55 AM 55.4 °F 55.4 °F 100% 30.03 in 7.0 mi Calm Calm - N/A   Mostly Cloudy
5:15 AM 55.4 °F 55.4 °F 100% 30.03 in 5.0 mi Calm Calm - N/A   Mostly Cloudy
5:35 AM 55.4 °F 55.4 °F 100% 30.03 in 5.0 mi Calm Calm - N/A   Scattered Clouds
5:55 AM 55.4 °F 55.4 °F 100% 30.04 in 4.0 mi Calm Calm - N/A   Clear
6:15 AM 55.4 °F 53.6 °F 94% 30.04 in 7.0 mi Calm Calm - N/A   Clear
6:35 AM 53.6 °F 53.6 °F 100% 30.04 in 5.0 mi Calm Calm - N/A   Clear
6:55 AM 53.6 °F 53.6 °F 100% 30.04 in 4.0 mi Calm Calm - N/A   Clear
7:15 AM 53.6 °F 53.6 °F 100% 30.05 in 2.0 mi Calm Calm - N/A   Clear
7:35 AM 55.4 °F 55.4 °F 100% 30.05 in 4.0 mi Calm Calm - N/A   Clear
7:55 AM 55.4 °F 55.4 °F 100% 30.06 in 3.0 mi Calm Calm - N/A   Scattered Clouds
8:15 AM 59.0 °F 59.0 °F 100% 30.06 in 5.0 mi Calm Calm - N/A   Mostly Cloudy
8:35 AM 62.6 °F 59.0 °F 88% 30.06 in 7.0 mi Calm Calm - N/A   Scattered Clouds
8:55 AM 64.4 °F 60.8 °F 88% 30.06 in 7.0 mi Calm Calm - N/A   Clear
9:15 AM 68.0 °F 60.8 °F 78% 30.06 in 10.0 mi Calm Calm - N/A   Clear
9:35 AM 68.0 °F 60.8 °F 78% 30.06 in 10.0 mi Calm Calm - N/A   Clear
10:35 AM 71.6 °F 59.0 °F 64% 30.06 in 10.0 mi SW 3.5 mph - N/A   Clear
10:55 AM 73.4 °F 59.0 °F 61% 30.05 in 10.0 mi SW 4.6 mph - N/A   Clear
11:15 AM 73.4 °F 59.0 °F 61% 30.04 in 10.0 mi Calm Calm - N/A   Clear
11:35 AM 73.4 °F 59.0 °F 61% 30.04 in 10.0 mi WSW 4.6 mph - N/A   Scattered Clouds
11:55 AM 73.4 °F 57.2 °F 57% 30.03 in 10.0 mi NW 3.5 mph - N/A   Scattered Clouds
12:15 PM 75.2 °F 57.2 °F 53% 30.03 in 10.0 mi SW 5.8 mph - N/A   Scattered Clouds
12:35 PM 75.2 °F 57.2 °F 53% 30.02 in 10.0 mi SSW 4.6 mph - N/A   Scattered Clouds
12:55 PM 77.0 °F 55.4 °F 47% 30.02 in 10.0 mi SW 4.6 mph - N/A   Scattered Clouds
1:15 PM 77.0 °F 55.4 °F 47% 30.01 in 10.0 mi West 5.8 mph - N/A   Clear
1:35 PM 77.0 °F 55.4 °F 47% 30.00 in 10.0 mi WNW 4.6 mph - N/A   Clear
1:55 PM 77.0 °F 55.4 °F 47% 29.99 in 10.0 mi Calm Calm - N/A   Clear
2:15 PM 77.0 °F 57.2 °F 50% 29.99 in 10.0 mi WNW 8.1 mph - N/A   Clear
2:35 PM 77.0 °F 57.2 °F 50% 29.98 in 10.0 mi NW 4.6 mph - N/A   Clear
2:55 PM 77.0 °F 55.4 °F 47% 29.96 in 10.0 mi Calm Calm - N/A   Clear
3:15 PM 77.0 °F 55.4 °F 47% 29.96 in 10.0 mi SW 4.6 mph - N/A   Clear
3:35 PM 78.8 °F 55.4 °F 44% 29.95 in 10.0 mi North 5.8 mph - N/A   Scattered Clouds
3:55 PM 77.0 °F 55.4 °F 47% 29.94 in 10.0 mi Calm Calm - N/A   Scattered Clouds
4:15 PM 77.0 °F 55.4 °F 47% 29.93 in 10.0 mi West 4.6 mph - N/A   Scattered Clouds
4:35 PM 77.0 °F 55.4 °F 47% 29.93 in 10.0 mi WSW 3.5 mph - N/A   Scattered Clouds
4:55 PM 77.0 °F 55.4 °F 47% 29.93 in 10.0 mi SSW 6.9 mph - N/A   Clear
5:15 PM 77.0 °F 55.4 °F 47% 29.93 in 10.0 mi West 5.8 mph - N/A   Scattered Clouds
5:35 PM 77.0 °F 55.4 °F 47% 29.92 in 10.0 mi SSW 6.9 mph - N/A   Mostly Cloudy
5:55 PM 75.2 °F 57.2 °F 53% 29.93 in 10.0 mi SSW 4.6 mph - N/A   Mostly Cloudy
6:15 PM 75.2 °F 55.4 °F 50% 29.93 in 10.0 mi SSW 6.9 mph - N/A   Overcast
6:35 PM 73.4 °F 57.2 °F 57% 29.93 in 10.0 mi SSW 5.8 mph - N/A   Scattered Clouds
6:55 PM 69.8 °F 59.0 °F 68% 29.93 in 10.0 mi SSW 5.8 mph - N/A   Clear
7:15 PM 68.0 °F 59.0 °F 73% 29.93 in 10.0 mi SSW 5.8 mph - N/A   Clear
7:35 PM 68.0 °F 59.0 °F 73% 29.94 in 10.0 mi SW 5.8 mph - N/A   Clear
7:55 PM 68.0 °F 59.0 °F 73% 29.94 in 10.0 mi SSW 4.6 mph - N/A   Mostly Cloudy
8:15 PM 68.0 °F 59.0 °F 73% 29.96 in 10.0 mi SW 4.6 mph - N/A   Mostly Cloudy
8:35 PM 66.2 °F 59.0 °F 78% 29.96 in 10.0 mi SW 5.8 mph - N/A   Scattered Clouds
8:55 PM 68.0 °F 59.0 °F 73% 29.98 in 10.0 mi SSW 5.8 mph - N/A   Mostly Cloudy
9:15 PM 66.2 °F 59.0 °F 78% 29.99 in 10.0 mi SW 4.6 mph - N/A   Overcast
9:35 PM 68.0 °F 59.0 °F 73% 29.99 in 10.0 mi South 4.6 mph - N/A   Mostly Cloudy
9:55 PM 66.2 °F 59.0 °F 78% 29.98 in 10.0 mi SSW 5.8 mph - N/A   Scattered Clouds
10:15 PM 62.6 °F 57.2 °F 82% 29.98 in 10.0 mi SW 5.8 mph - N/A   Clear
10:35 PM 64.4 °F 59.0 °F 83% 29.98 in 10.0 mi Calm Calm - N/A   Clear
10:55 PM 62.6 °F 59.0 °F 88% 29.97 in 10.0 mi Calm Calm - N/A   Clear
11:15 PM 60.8 °F 59.0 °F 94% 29.97 in 10.0 mi Calm Calm - N/A   Clear
11:35 PM 62.6 °F 59.0 °F 88% 29.96 in 10.0 mi Calm Calm - N/A   Clear
11:55 PM 59.0 °F 57.2 °F 94% 29.96 in 10.0 mi Calm Calm - N/A   Clear